sat.trackr.live / text

‹ back to catalog

STARLINK-35167

NORAD 65736 · 2025-216C

PAYLOAD ACTIVE UNKNOWN

§ Identity

Operator
Country
US
Launch date
2025-09-25
Launch site
AFETR
Launch vehicle
Mass (kg)
RCS (m²)

Purposes: comms

External: N2YO · Heavens-Above · Gunter

§ Orbital elements

Epoch: 2026-05-24T20:12:44.833248Z

Period
94.11 min
Inclination
53.1589°
Eccentricity
0.0000810
Mean motion
15.30204625 rev/d
Perigee alt
474.6 km
Apogee alt
475.8 km
Semi-major
6,853.3 km
B*
3.5531e-4
RAAN
339.1157°
Arg perigee
54.6873°
Mean anomaly
305.4203°
Rev number
3,820

§ Raw data

STARLINK-351671 65736U 25216C   26144.84218557  .00010180  00000+0  35531-3 0  99992 65736  53.1589 339.1157 0000810  54.6873 305.4203 15.30204625 38209

JSON: /api/v1/satellites/65736 · /tle

For live sub-satellite position, see the globe view (requires WebGL).

§ Visibility from observer

Set your observer location to see the next 7 days of passes ≥ 10°. The values pass through the URL so the page stays shareable.

No JS? Fill the form by hand. The geolocation button needs JavaScript.